Paso Robles, CA

10:01 PM PDT on September 24, 2017 (GMT -0700)
Paso Robles Municipal

Weather History for KPRB - December, 2011

Change the Weather History Date:

Thursday, December 1, 2011

  Actual Average Record
Temperature  
Mean Temperature 55 °F 48 °F  
Max Temperature 67 °F 61 °F 78 °F (2008)
Min Temperature 42 °F 35 °F 21 °F (1991)
Degree Days  
Heating Degree Days 10 17  
Month to date heating degree days 10 17  
Since 1 July heating degree days 505 566  
Cooling Degree Days 0 0  
Month to date cooling degree days 0 0  
Year to date cooling degree days 940 927  
Growing Degree Days 8 (Base 50)    
Moisture  
Dew Point 15 °F    
Average Humidity 20    
Maximum Humidity 29    
Minimum Humidity 10    
Precipitation  
Precipitation 0.00 in 0.04 in 1.16 in (1961)
Month to date precipitation 0.00 0.04  
Year to date precipitation 12.56 10.81  
Since 1 July precipitation 2.74  
Sea Level Pressure  
Sea Level Pressure 29.93 in    
Wind  
Wind Speed 18 mph (NNW)    
Max Wind Speed 33 mph    
Max Gust Speed 41 mph    
Visibility 10 miles    
Events      
T = Trace of Precipitation, MM = Missing Value Source: NWS Daily Summary

Daily Weather History Graph

Daily Weather History Graph

Search for Another Location

Airport or City:

Trip Planner

Search our weather history database for the weather conditions in past years. The results will help you decide how hot, cold, wet, or windy it might be!

Date:

Astronomy

Dec. 01, 2011 Rise Set
Actual Time 6:53 AM PST 4:49 PM PST
Civil Twilight 6:25 AM PST 5:17 PM PST
Nautical Twilight 5:54 AM PST 5:48 PM PST
Astronomical Twilight 5:23 AM PST 6:19 PM PST
Moon 11:49 AM PST (12/1) 11:43 PM PST (12/1)
Length of Visible Light 10h 51m
Length of Day
9h 55m
Waxing Crescent, 44% of the Moon is Illuminated
Dec 1
Waxing Crescent
Dec 2
First Quarter
Dec 10
Full
Dec 17
Last Quarter
Dec 24
New

Hourly Weather History & Observations

Time (PST) Temp. Windchill Dew Point Humidity Pressure Visibility Wind Dir Wind Speed Gust Speed Precip Events Conditions
12:53 AM 53.1 °F - 21.0 °F 29% 29.96 in 10.0 mi WNW 16.1 mph - N/A   Clear
1:53 AM 53.1 °F - 19.0 °F 26% 29.95 in 10.0 mi North 17.3 mph 21.9 mph N/A   Clear
2:53 AM 54.0 °F - 18.0 °F 24% 29.96 in 10.0 mi North 18.4 mph 26.5 mph N/A   Clear
3:53 AM 54.0 °F - 17.1 °F 23% 29.94 in 10.0 mi North 25.3 mph 36.8 mph N/A   Clear
4:53 AM 54.0 °F - 17.1 °F 23% 29.94 in 10.0 mi North 28.8 mph 38.0 mph N/A   Clear
5:53 AM 53.1 °F - 17.1 °F 24% 29.95 in 10.0 mi NNW 27.6 mph 34.5 mph N/A   Clear
6:53 AM 50.0 °F - 19.0 °F 29% 29.93 in 10.0 mi NW 20.7 mph 29.9 mph N/A   Clear
7:53 AM 55.0 °F - 15.1 °F 21% 29.94 in 10.0 mi North 26.5 mph 36.8 mph N/A   Clear
8:53 AM 57.0 °F - 14.0 °F 18% 29.94 in 10.0 mi North 27.6 mph 39.1 mph N/A   Clear
9:53 AM 60.1 °F - 15.1 °F 17% 29.94 in 10.0 mi North 23.0 mph 35.7 mph N/A   Clear
10:53 AM 62.1 °F - 15.1 °F 16% 29.92 in 10.0 mi North 25.3 mph 36.8 mph N/A   Clear
11:53 AM 64.4 °F - 10.4 °F 12% 29.92 in 10.0 mi North 21.9 mph 27.6 mph N/A   Clear
12:53 PM 66.2 °F - 8.6 °F 11% 29.90 in 10.0 mi North 17.3 mph 24.2 mph N/A   Clear
1:53 PM 66.2 °F - 10.4 °F 11% 29.88 in 10.0 mi NNW 18.4 mph 25.3 mph N/A   Clear
2:53 PM 64.9 °F - 10.9 °F 12% 29.86 in 10.0 mi NNW 19.6 mph 27.6 mph N/A   Clear
3:53 PM 64.0 °F - 12.0 °F 13% 29.87 in 10.0 mi NNW 20.7 mph 26.5 mph N/A   Clear
4:53 PM 60.1 °F - 12.9 °F 16% 29.89 in 10.0 mi NW 17.3 mph 29.9 mph N/A   Clear
5:53 PM 59.0 °F - 12.0 °F 16% 29.90 in 10.0 mi North 13.8 mph - N/A   Clear
6:53 PM 57.9 °F - 12.0 °F 16% 29.91 in 10.0 mi NW 5.8 mph 16.1 mph N/A   Clear
7:53 PM 57.0 °F - 12.0 °F 17% 29.94 in 10.0 mi WNW 15.0 mph 23.0 mph N/A   Clear
8:53 PM 55.4 °F - 12.2 °F 18% 29.94 in 10.0 mi NW 16.1 mph - N/A   Clear
9:53 PM 54.0 °F - 14.0 °F 21% 29.94 in 10.0 mi North 11.5 mph - N/A   Clear
10:53 PM 53.1 °F - 14.0 °F 21% 29.96 in 10.0 mi NNE 3.5 mph - N/A   Clear
11:53 PM 44.1 °F 42.5 °F 19.0 °F 37% 29.96 in 10.0 mi SSW 3.5 mph - N/A   Clear